Weather History for South Bend, IN

Change the Weather History Date:

Thursday, January 31, 2013

  Actual Average Record
Temperature  
Mean Temperature 19 °F 25 °F  
Max Temperature 26 °F 32 °F 64 °F (1989)
Min Temperature 12 °F 18 °F -11 °F (1936)
Degree Days  
Heating Degree Days 46 40  
Month to date heating degree days 1148 1260  
Since 1 July heating degree days 3348 3648  
Cooling Degree Days 0 0  
Month to date cooling degree days 0 0  
Year to date cooling degree days 0 0  
Moisture  
Dew Point 12 °F    
Average Humidity 75    
Maximum Humidity 88    
Minimum Humidity 62    
Precipitation  
Precipitation 0.22 in 0.06 in 0.94 in (2002)
Month to date precipitation 5.06 2.29  
Year to date precipitation 5.06 2.29  
Snow  
Snow 3.10 in - - ()
Month to date snowfall 11.9  
Snow Depth 2.00 in    
Sea Level Pressure  
Sea Level Pressure 29.78 in    
Wind  
Wind Speed 17 mph (West)    
Max Wind Speed 28 mph    
Max Gust Speed 39 mph    
Visibility 2 miles    
Events Fog , Snow    
T = Trace of Precipitation, MM = Missing Value Source: NWS Daily Summary

Daily Weather History Graph

Daily Weather History Graph

Search for Another Location

Airport:

Trip Planner

Search our weather history database for the weather conditions in past years. The results will help you decide how hot, cold, wet, or windy it might be!

Date:

Astronomy

Jan. 31, 2013 Rise Set
Actual Time 7:58 AM EST 5:59 PM EST
Civil Twilight 7:28 AM EST 6:29 PM EST
Nautical Twilight 6:55 AM EST 7:02 PM EST
Astronomical Twilight 6:22 AM EST 7:35 PM EST
Moon 11:06 PM EST (1/31) 9:52 AM EST (1/31)
Length of Visible Light 11h 00m
Length of Day
10h 01m
Waning Gibbous, 80% of the Moon is Illuminated
Jan 31
Waning Gibbous
Feb 3
Last Quarter
Feb 10
New
Feb 17
First Quarter
Feb 25
Full

Hourly Weather History & Observations

Time (EST) Temp. Windchill Dew Point Humidity Pressure Visibility Wind Dir Wind Speed Gust Speed Precip Events Conditions
12:46 AM 24.8 °F 10.3 °F 19.4 °F 80% 29.52 in 2.5 mi West 20.7 mph 33.4 mph 0.00 in Snow Light Snow
12:54 AM 24.1 °F 8.0 °F 18.0 °F 77% 29.55 in 3.0 mi West 25.3 mph 32.2 mph 0.00 in Snow Light Snow
1:01 AM 24.8 °F 9.6 °F 17.6 °F 74% 29.53 in 2.5 mi West 23.0 mph 32.2 mph 0.00 in Snow Light Snow
1:12 AM 24.8 °F 10.3 °F 17.6 °F 74% 29.54 in 3.0 mi WNW 20.7 mph - 0.00 in Snow Light Snow
1:26 AM 24.8 °F 10.0 °F 17.6 °F 74% 29.54 in 5.0 mi WNW 21.9 mph 28.8 mph 0.00 in Snow Light Snow
1:54 AM 23.0 °F 8.0 °F 16.0 °F 74% 29.57 in 4.0 mi WNW 20.7 mph 31.1 mph 0.00 in Snow Light Snow
2:11 AM 23.0 °F 8.0 °F 17.6 °F 80% 29.56 in 2.5 mi West 20.7 mph 28.8 mph 0.00 in Snow Light Snow
2:19 AM 23.0 °F 8.3 °F 17.6 °F 80% 29.57 in 1.2 mi West 19.6 mph 25.3 mph 0.00 in Snow Light Snow
2:36 AM 23.0 °F 8.7 °F 15.8 °F 74% 29.59 in 3.0 mi West 18.4 mph 31.1 mph 0.00 in Snow Light Snow
2:54 AM 21.9 °F 7.8 °F 16.0 °F 78% 29.62 in 3.0 mi West 17.3 mph 28.8 mph 0.00 in Snow Light Snow
3:14 AM 21.2 °F 5.2 °F 15.8 °F 80% 29.60 in 1.8 mi WNW 21.9 mph - 0.00 in Snow Light Snow
3:23 AM 21.2 °F 5.6 °F 15.8 °F 80% 29.60 in 3.0 mi WNW 20.7 mph 27.6 mph 0.00 in Snow Light Snow
3:54 AM 21.9 °F 6.5 °F 15.1 °F 75% 29.63 in 2.5 mi West 20.7 mph - 0.00 in Snow Light Snow
3:59 AM 21.2 °F 6.8 °F 17.6 °F 86% 29.61 in 0.8 mi West 17.3 mph - 0.00 in Snow Light Snow
4:12 AM 21.2 °F 6.4 °F 15.8 °F 80% 29.61 in 2.5 mi West 18.4 mph 24.2 mph 0.00 in Snow Light Snow
4:20 AM 21.2 °F 5.2 °F 14.0 °F 74% 29.61 in 8.0 mi West 21.9 mph 28.8 mph 0.00 in   Overcast
4:54 AM 21.0 °F 6.2 °F 14.0 °F 74% 29.66 in 3.0 mi West 18.4 mph 31.1 mph 0.00 in Snow Light Snow
5:21 AM 19.4 °F 3.6 °F 14.0 °F 80% 29.65 in 2.0 mi West 19.6 mph 28.8 mph 0.00 in Snow Light Snow
5:54 AM 19.9 °F 5.2 °F 12.9 °F 74% 29.69 in 2.5 mi WSW 17.3 mph 26.5 mph 0.00 in Snow Light Snow
6:07 AM 19.4 °F 5.0 °F 14.0 °F 80% 29.66 in 1.8 mi WSW 16.1 mph - 0.00 in Snow Light Snow
6:17 AM 19.4 °F 4.5 °F 14.0 °F 80% 29.66 in 2.0 mi West 17.3 mph - 0.00 in Snow Light Snow
6:54 AM 19.0 °F 3.6 °F 12.0 °F 74% 29.71 in 2.0 mi West 18.4 mph - 0.00 in Snow Light Snow
7:21 AM 19.4 °F 3.2 °F 10.4 °F 68% 29.69 in 2.0 mi West 20.7 mph 32.2 mph 0.00 in Snow Light Snow
7:27 AM 19.4 °F 3.6 °F 10.4 °F 68% 29.69 in 2.0 mi West 19.6 mph 29.9 mph 0.00 in Snow Light Snow
7:50 AM 19.4 °F 4.5 °F 8.6 °F 63% 29.70 in 6.0 mi West 17.3 mph - 0.00 in Snow Light Snow
7:54 AM 19.0 °F 4.0 °F 9.0 °F 65% 29.74 in 7.0 mi West 17.3 mph 24.2 mph 0.00 in Snow Light Snow
8:18 AM 19.4 °F 4.5 °F 10.4 °F 68% 29.72 in 2.0 mi West 17.3 mph 25.3 mph 0.00 in Snow Light Snow
8:20 AM 19.4 °F 6.0 °F 10.4 °F 68% 29.72 in 1.0 mi West 13.8 mph 25.3 mph 0.00 in Snow Light Snow
8:34 AM 17.6 °F 4.3 °F 12.2 °F 79% 29.73 in 0.5 mi West 12.7 mph - 0.00 in Snow Snow
8:54 AM 17.1 °F 3.0 °F 12.9 °F 84% 29.77 in 0.5 mi WSW 13.8 mph - 0.01 in Fog , Snow Snow
9:31 AM 17.6 °F 3.7 °F 12.2 °F 79% 29.75 in 0.5 mi WSW 13.8 mph - 0.00 in Fog , Snow Snow
9:54 AM 17.1 °F 3.6 °F 12.9 °F 84% 29.80 in 0.5 mi WSW 12.7 mph - 0.00 in Fog , Snow Snow
10:44 AM 17.6 °F 2.7 °F 12.2 °F 79% 29.78 in 4.0 mi WSW 16.1 mph - 0.00 in Snow Light Snow
10:54 AM 18.0 °F 4.2 °F 12.0 °F 78% 29.82 in 7.0 mi WSW 13.8 mph - 0.00 in Snow Light Snow
11:11 AM 19.4 °F 3.6 °F 12.2 °F 74% 29.79 in 1.8 mi WSW 19.6 mph - 0.00 in Snow Light Snow
11:18 AM 19.4 °F 5.0 °F 14.0 °F 80% 29.79 in 2.0 mi West 16.1 mph 24.2 mph 0.00 in Snow Light Snow
11:27 AM 19.4 °F 4.5 °F 12.2 °F 74% 29.80 in 0.5 mi WSW 17.3 mph 24.2 mph 0.00 in Snow Snow
11:54 AM 18.0 °F 2.6 °F 12.0 °F 78% 29.84 in 0.5 mi WSW 17.3 mph 27.6 mph 0.00 in Snow Snow
12:20 PM 17.6 °F 0.5 °F 10.4 °F 73% 29.81 in 1.0 mi WSW 21.9 mph 27.6 mph 0.00 in Snow Light Snow
12:54 PM 18.0 °F 2.2 °F 10.9 °F 74% 29.85 in 4.0 mi West 18.4 mph - 0.00 in Snow Light Snow
1:29 PM 17.6 °F 0.5 °F 10.4 °F 73% 29.81 in 0.5 mi West 21.9 mph - 0.00 in Snow Snow
1:40 PM 19.4 °F 4.5 °F 12.2 °F 74% 29.82 in 0.5 mi West 17.3 mph 23.0 mph 0.00 in Snow Snow
1:47 PM 17.6 °F 0.9 °F 12.2 °F 79% 29.82 in 0.5 mi West 20.7 mph 27.6 mph 0.00 in Snow Heavy Snow
1:50 PM 17.6 °F 0.5 °F 12.2 °F 79% 29.82 in 0.2 mi West 21.9 mph 27.6 mph 0.00 in Fog , Snow Heavy Snow
1:54 PM 17.1 °F 1.0 °F 12.9 °F 84% 29.86 in 0.2 mi West 18.4 mph - 0.00 in Fog , Snow Heavy Snow
1:57 PM 17.6 °F 1.7 °F 12.2 °F 79% 29.82 in 0.5 mi West 18.4 mph - 0.00 in Fog , Snow Light Snow
2:54 PM 17.1 °F 3.0 °F 10.9 °F 77% 29.88 in 0.5 mi West 13.8 mph 26.5 mph 0.00 in Snow Snow
3:54 PM 16.0 °F 0.1 °F 10.0 °F 77% 29.89 in 1.0 mi WSW 17.3 mph 27.6 mph 0.00 in Snow Light Snow
4:12 PM 15.8 °F -2.3 °F 10.4 °F 79% 29.85 in 2.0 mi West 23.0 mph 26.5 mph 0.00 in Snow Light Snow
4:23 PM 15.8 °F -1.1 °F 10.4 °F 79% 29.85 in 2.0 mi West 19.6 mph 25.3 mph 0.00 in Snow Light Snow
4:25 PM 15.8 °F -1.5 °F 8.6 °F 73% 29.85 in 2.0 mi West 20.7 mph 27.6 mph 0.00 in Snow Light Snow
4:54 PM 15.1 °F -0.1 °F 9.0 °F 77% 29.91 in 2.0 mi WSW 15.0 mph - 0.00 in Snow Light Snow
5:45 PM 15.8 °F -0.2 °F 10.4 °F 79% 29.88 in 0.8 mi West 17.3 mph - 0.00 in Snow Light Snow
5:54 PM 15.1 °F -0.6 °F 10.0 °F 80% 29.92 in 0.8 mi West 16.1 mph - 0.00 in Snow Light Snow
6:54 PM 14.0 °F -0.2 °F 10.0 °F 84% 29.95 in 1.0 mi West 12.7 mph - 0.00 in Snow Light Snow
7:54 PM 12.9 °F -2.2 °F 9.0 °F 84% 29.98 in 1.0 mi WSW 13.8 mph - 0.01 in Snow Light Snow
8:01 PM 12.2 °F -3.1 °F 8.6 °F 85% 29.94 in 0.8 mi WSW 13.8 mph - 0.00 in Snow Light Snow
8:18 PM 12.2 °F -3.1 °F 8.6 °F 85% 29.94 in 0.5 mi WSW 13.8 mph - 0.00 in Fog , Snow Snow
8:44 PM 12.2 °F -4.3 °F 8.6 °F 85% 29.95 in 0.8 mi West 16.1 mph 27.6 mph 0.01 in Snow Light Snow
8:54 PM 12.9 °F -3.4 °F 7.0 °F 77% 30.00 in 1.8 mi West 16.1 mph 26.5 mph 0.01 in Snow Light Snow
9:54 PM 12.0 °F -5.1 °F 8.1 °F 84% 30.02 in 1.0 mi West 17.3 mph - 0.00 in Snow Light Snow
10:06 PM 12.2 °F -3.1 °F 8.6 °F 85% 29.98 in 1.5 mi West 13.8 mph - 0.00 in Snow Light Snow
10:27 PM 12.2 °F -4.3 °F 8.6 °F 85% 29.99 in 1.0 mi West 16.1 mph - 0.00 in Snow Light Snow
10:44 PM 12.2 °F -3.7 °F 8.6 °F 85% 29.99 in 0.8 mi West 15.0 mph - 0.00 in Snow Light Snow
10:54 PM 12.0 °F -4.0 °F 8.1 °F 84% 30.04 in 0.8 mi West 15.0 mph - 0.00 in Snow Light Snow
11:03 PM 12.2 °F -2.5 °F 8.6 °F 85% 30.00 in 0.8 mi West 12.7 mph 21.9 mph 0.00 in Snow Light Snow
11:43 PM 12.2 °F -3.7 °F 6.8 °F 79% 30.01 in 1.0 mi West 15.0 mph 25.3 mph 0.00 in Snow Light Snow
11:54 PM 12.0 °F -4.5 °F 7.0 °F 80% 30.06 in 1.0 mi West 16.1 mph 24.2 mph 0.00 in Snow Light Snow